Fort Wayne, IN

4:46 AM EDT on April 25, 2018 (GMT -0400)
Fort Wayne International

Weather History for KFWA - January, 2013

Change the Weather History Date:

Monday, January 14, 2013

  Actual Average Record
Temperature  
Mean Temperature 21 °F 25 °F  
Max Temperature 25 °F 32 °F 63 °F (1932)
Min Temperature 17 °F 17 °F -7 °F (1979)
Degree Days  
Heating Degree Days 44 40  
Month to date heating degree days 502 559  
Since 1 July heating degree days 2704 2887  
Cooling Degree Days 0 0  
Month to date cooling degree days 0 0  
Year to date cooling degree days 0 0  
Moisture  
Dew Point 17 °F    
Average Humidity 83    
Maximum Humidity 91    
Minimum Humidity 74    
Precipitation  
Precipitation T in 0.07 in 1.00 in (1930)
Month to date precipitation 2.46 1.10  
Year to date precipitation 2.46 1.10  
Snow  
Snow T in 0.30 in 4.00 in (1951)
Month to date snowfall 0.2 4.4  
Since 1 July snowfall 9.8 15.0  
Snow Depth 0.00 in    
Sea Level Pressure  
Sea Level Pressure 30.39 in    
Wind  
Wind Speed 7 mph (WNW)    
Max Wind Speed 21 mph    
Max Gust Speed 25 mph    
Visibility 9 miles    
Events Snow    
T = Trace of Precipitation, MM = Missing Value Source: NWS Daily Summary

Daily Weather History Graph

Daily Weather History Graph

Search for Another Location

Airport or City:

Astronomy

Jan. 14, 2013 Rise Set
Actual Time 8:03 AM EST 5:36 PM EST
Civil Twilight 7:33 AM EST 6:06 PM EST
Nautical Twilight 6:59 AM EST 6:40 PM EST
Astronomical Twilight 6:26 AM EST 7:13 PM EST
Moon 9:35 AM EST (1/14) 9:23 PM EST (1/14)
Length of Visible Light 10h 33m
Length of Day
9h 32m
Waxing Crescent, 11% of the Moon is Illuminated
Jan 14
Waxing Crescent
Jan 18
First Quarter
Jan 26
Full
Feb 3
Last Quarter
Feb 10
New

Hourly Weather History & Observations

Time (EST) Temp. Windchill Dew Point Humidity Pressure Visibility Wind Dir Wind Speed Gust Speed Precip Events Conditions
12:54 AM 23.0 °F 8.3 °F 19.9 °F 88% 30.20 in 10.0 mi West 19.6 mph - N/A   Overcast
1:54 AM 23.0 °F 10.6 °F 19.0 °F 85% 30.24 in 10.0 mi West 13.8 mph - N/A   Overcast
2:54 AM 21.0 °F 9.3 °F 18.0 °F 88% 30.27 in 10.0 mi WNW 11.5 mph - N/A   Overcast
3:54 AM 19.9 °F 5.7 °F 16.0 °F 85% 30.30 in 10.0 mi WSW 16.1 mph - N/A   Overcast
4:54 AM 19.4 °F 5.0 °F 15.8 °F 86% 30.29 in 10.0 mi West 16.1 mph - N/A   Overcast
5:54 AM 19.0 °F 6.1 °F 16.0 °F 88% 30.34 in 10.0 mi WNW 12.7 mph - 0.00 in Snow Light Snow
6:54 AM 17.6 °F 5.0 °F 14.0 °F 86% 30.32 in 10.0 mi WNW 11.5 mph - N/A Snow Light Snow
7:54 AM 18.0 °F 6.9 °F 14.0 °F 84% 30.40 in 8.0 mi NW 9.2 mph - 0.00 in Snow Light Snow
8:54 AM 19.0 °F 9.0 °F 15.1 °F 85% 30.43 in 5.0 mi NW 8.1 mph - 0.00 in Snow Light Snow
9:17 AM 19.4 °F 11.5 °F 15.8 °F 86% 30.40 in 4.0 mi WNW 5.8 mph - 0.00 in Snow Light Snow
9:54 AM 19.9 °F 9.3 °F 15.1 °F 81% 30.44 in 6.0 mi NW 9.2 mph - 0.00 in Snow Light Snow
10:54 AM 21.0 °F 11.4 °F 16.0 °F 81% 30.44 in 7.0 mi NNW 8.1 mph - 0.00 in Snow Light Snow
11:54 AM 21.0 °F 16.2 °F 15.1 °F 78% 30.42 in 8.0 mi NW 3.5 mph - 0.00 in Snow Light Snow
12:54 PM 21.9 °F 17.2 °F 16.0 °F 78% 30.42 in 9.0 mi North 3.5 mph - 0.00 in Snow Light Snow
1:54 PM 23.0 °F - 16.0 °F 74% 30.43 in 9.0 mi Calm Calm - 0.00 in Snow Light Snow
2:54 PM 23.0 °F 17.0 °F 17.1 °F 78% 30.44 in 9.0 mi WNW 4.6 mph - 0.00 in Snow Light Snow
3:54 PM 23.0 °F 17.0 °F 17.1 °F 78% 30.47 in 9.0 mi WNW 4.6 mph - 0.00 in Snow Light Snow
4:54 PM 23.0 °F 18.4 °F 17.6 °F 80% 30.43 in 9.0 mi West 3.5 mph - N/A   Overcast
5:54 PM 23.0 °F 18.4 °F 17.6 °F 80% 30.42 in 10.0 mi NW 3.5 mph - N/A   Mostly Cloudy
6:28 PM 23.0 °F 18.4 °F 17.6 °F 80% 30.42 in 10.0 mi NW 3.5 mph - N/A   Mostly Cloudy
6:54 PM 23.0 °F 18.4 °F 17.1 °F 78% 30.45 in 10.0 mi WNW 3.5 mph - N/A   Mostly Cloudy
7:54 PM 21.9 °F 15.7 °F 18.0 °F 85% 30.44 in 10.0 mi NW 4.6 mph - N/A   Mostly Cloudy
8:10 PM 21.2 °F 16.4 °F 17.6 °F 86% 30.39 in 9.0 mi NW 3.5 mph - N/A   Scattered Clouds
8:54 PM 21.9 °F - 18.0 °F 85% 30.44 in 10.0 mi Calm Calm - N/A   Partly Cloudy
9:54 PM 19.9 °F - 17.1 °F 89% 30.43 in 10.0 mi Calm Calm - N/A   Clear
10:54 PM 21.0 °F - 17.1 °F 85% 30.43 in 10.0 mi Calm Calm - N/A   Clear
11:54 PM 19.9 °F 14.9 °F 17.1 °F 89% 30.43 in 10.0 mi WNW 3.5 mph - N/A   Clear